TimeCDT,TemperatureF,Dew PointF,Humidity,Sea Level PressureIn,VisibilityMPH,Wind Direction,Wind SpeedMPH,Gust SpeedMPH,PrecipitationIn,Events,Conditions,WindDirDegrees,DateUTC
12:55 AM,62.1,55.9,80,29.71,10.0,SSE,5.8,-,0.00,Rain,Light Rain,160,2013-07-22 05:55:00
1:55 AM,59.0,55.0,87,29.67,6.0,SSE,4.6,-,0.03,Rain,Light Rain,160,2013-07-22 06:55:00
2:26 AM,57.2,55.4,94,29.66,1.8,SE,9.2,-,0.07,Rain,Heavy Rain,140,2013-07-22 07:26:00
2:33 AM,57.2,55.4,94,29.65,3.0,SSE,5.8,-,0.19,Rain,Light Rain,150,2013-07-22 07:33:00
2:50 AM,57.2,55.4,94,29.63,10.0,SE,10.4,-,0.19,,Overcast,140,2013-07-22 07:50:00
2:55 AM,57.0,55.0,93,29.63,10.0,SE,6.9,-,0.19,,Overcast,140,2013-07-22 07:55:00
3:26 AM,57.2,55.4,94,29.61,10.0,SSE,8.1,-,0.00,Rain,Light Rain,150,2013-07-22 08:26:00
3:55 AM,57.0,55.0,93,29.61,4.0,South,10.4,19.6,0.01,Rain,Heavy Rain,170,2013-07-22 08:55:00
4:00 AM,57.2,55.4,94,29.60,1.8,South,9.2,19.6,0.08,Rain-Thunderstorm,Heavy Rain,180,2013-07-22 09:00:00
4:07 AM,57.2,55.4,94,29.58,2.0,SSE,8.1,18.4,0.19,Rain-Thunderstorm,Light Rain,150,2013-07-22 09:07:00
4:10 AM,57.2,55.4,94,29.57,4.0,SSE,8.1,16.1,0.19,Rain-Thunderstorm,Light Rain,150,2013-07-22 09:10:00
4:18 AM,57.2,55.4,94,29.56,10.0,Variable,5.8,-,0.19,,Overcast,0,2013-07-22 09:18:00
4:55 AM,60.1,57.9,93,29.59,9.0,WNW,11.5,18.4,0.19,Rain,Light Rain,300,2013-07-22 09:55:00
4:58 AM,60.8,57.2,88,29.59,10.0,West,9.2,18.4,0.00,Rain,Light Rain,280,2013-07-22 09:58:00
5:14 AM,60.8,59.0,94,29.58,10.0,SW,8.1,-,0.00,,Overcast,230,2013-07-22 10:14:00
5:55 AM,61.0,60.1,97,29.56,9.0,SSW,4.6,-,0.00,,Overcast,200,2013-07-22 10:55:00
6:17 AM,62.6,60.8,94,29.56,7.0,SSW,4.6,-,N/A,,Overcast,200,2013-07-22 11:17:00
6:36 AM,62.6,62.6,100,29.56,8.0,SW,5.8,-,N/A,,Overcast,230,2013-07-22 11:36:00
6:55 AM,64.0,63.0,96,29.56,10.0,SW,5.8,-,N/A,,Overcast,220,2013-07-22 11:55:00
7:36 AM,66.2,64.4,94,29.57,10.0,West,8.1,16.1,N/A,,Overcast,260,2013-07-22 12:36:00
7:55 AM,68.0,63.0,84,29.57,10.0,West,9.2,21.9,N/A,,Mostly Cloudy,260,2013-07-22 12:55:00
8:05 AM,66.2,62.6,88,29.57,10.0,West,11.5,23.0,N/A,,Mostly Cloudy,260,2013-07-22 13:05:00
8:55 AM,66.0,60.1,81,29.59,10.0,West,16.1,25.3,N/A,,Mostly Cloudy,260,2013-07-22 13:55:00
9:55 AM,62.1,55.9,80,29.61,10.0,West,15.0,20.7,N/A,,Overcast,260,2013-07-22 14:55:00
10:52 AM,60.8,57.2,88,29.63,6.0,WSW,9.2,19.6,0.00,Rain,Light Rain,250,2013-07-22 15:52:00
10:55 AM,61.0,57.9,90,29.63,6.0,West,9.2,19.6,0.00,Rain,Light Rain,260,2013-07-22 15:55:00
11:24 AM,62.6,57.2,82,29.64,10.0,West,10.4,19.6,0.00,,Overcast,260,2013-07-22 16:24:00
11:55 AM,64.0,57.9,80,29.64,10.0,West,13.8,18.4,0.00,,Overcast,270,2013-07-22 16:55:00
12:34 PM,66.2,55.4,68,29.66,10.0,WNW,21.9,26.5,N/A,,Overcast,290,2013-07-22 17:34:00
12:55 PM,66.0,55.9,70,29.68,10.0,WNW,18.4,28.8,N/A,,Overcast,290,2013-07-22 17:55:00
1:55 PM,64.9,55.9,73,29.70,10.0,WNW,13.8,23.0,N/A,,Overcast,290,2013-07-22 18:55:00
2:55 PM,66.0,55.0,68,29.72,10.0,WNW,17.3,24.2,N/A,,Overcast,290,2013-07-22 19:55:00
3:55 PM,66.0,52.0,60,29.75,10.0,NW,17.3,27.6,N/A,,Overcast,310,2013-07-22 20:55:00
4:55 PM,66.0,52.0,60,29.76,10.0,NW,15.0,25.3,N/A,,Mostly Cloudy,310,2013-07-22 21:55:00
5:55 PM,68.0,53.1,59,29.76,10.0,WNW,16.1,20.7,N/A,,Mostly Cloudy,300,2013-07-22 22:55:00
6:55 PM,66.0,52.0,60,29.78,10.0,NW,12.7,-,N/A,,Partly Cloudy,310,2013-07-22 23:55:00
7:55 PM,66.0,50.0,56,29.79,10.0,NW,12.7,23.0,N/A,,Clear,320,2013-07-23 00:55:00
8:55 PM,61.0,51.1,70,29.80,10.0,NW,8.1,-,N/A,,Clear,310,2013-07-23 01:55:00
9:55 PM,57.0,51.1,81,29.84,10.0,NW,6.9,-,N/A,,Scattered Clouds,320,2013-07-23 02:55:00
10:55 PM,54.0,50.0,86,29.86,10.0,NNW,5.8,-,N/A,,Clear,340,2013-07-23 03:55:00
11:55 PM,57.9,48.9,72,29.87,10.0,North,6.9,-,N/A,,Clear,350,2013-07-23 04:55:00